Regional Weather Roundup
Issued by NWS

Home | Current Version | Previous Version | Text Only | Print | Product List | Glossary Off
Versions: 1 2 3 4 5 6 7 8 9 10 11 12 13 14 15 16 17 18 19 20 21 22 23 24 25 26 27 28 29 30 31 32 33 34 35 36 37 38 39 40 41 42 43 44 45 46 47 48 49 50

000
ASUS45 KBOU 211807
RWRCO

WEATHER ROUNDUP FOR COLORADO
NATIONAL WEATHER SERVICE DENVER/BOULDER CO
1200 PM MDT SUN SEP 21 2014

NOTE: "FAIR" INDICATES FEW OR NO CLOUDS BELOW 12000 FEET WITH NO
SIGNIFICANT WEATHER AND/OR OBSTRUCTIONS TO VISIBILITY.

COZ001>005-013-030-031-211900-
...NORTHWEST COLORADO...

CITY           SKY/WX    TMP DP  RH WIND       PRES   REMARKS
CRAIG          LGT RAIN  61  46  57 NW3       30.39R
HAYDEN         PTSUNNY   66  46  48 W17G23    30.39S
MEEKER         NOT AVBL
MOUNT WERNER   NOT AVBL
STEAMBOAT SPGS CLOUDY    65  45  48 CALM      30.40S
WALDEN         SUNNY     68  41  37 S7        30.44S
$$

COZ006>008-011-211900-
...WEST CENTRAL VALLEYS...

CITY           SKY/WX    TMP DP  RH WIND       PRES   REMARKS
GRAND JUNCTION PTSUNNY   69  59  70 SE10      30.26F
MONTROSE       MOSUNNY   70  57  63 NE5       30.34F
EAGLE          CLOUDY    63  50  63 W7        30.44R
RIFLE          LGT RAIN  62  54  74 CALM      30.36F
DELTA          RAIN      71  58  62 E6        30.30F
NUCLA          MOSUNNY   77  45  31 E10       30.31F
$$

COZ017>023-064>068-211900-
...SOUTHWEST COLORADO...

CITY           SKY/WX    TMP DP  RH WIND       PRES   REMARKS
DURANGO        SUNNY     71  53  52 SE6       30.37F
CORTEZ         MOSUNNY   78  54  43 S20G28    30.30S
PAGOSA SPRINGS PTSUNNY   70  45  40 S10       30.44F
TELLURIDE      NOT AVBL
WOLF CREEK PAS PTSUNNY   50  41  71 SW9       30.71F
$$

COZ009-010-012-014-032>034-037-058>063-211900-
...CENTRAL COLORADO...

CITY           SKY/WX    TMP DP  RH WIND       PRES   REMARKS
ASPEN          LGT RAIN  60  48  64 N5        30.49R
BUENA VISTA    CLOUDY    56  51  85 SE6       30.52F
COPPER MTN     CLOUDY    52  43  71 W6        30.72F
BERTHOUD PASS  CLOUDY    45  43  93 MISG      30.76S
COTTONWOOD PAS CLOUDY    52  45  76 W12G18    30.62S
GUNNISON       CLOUDY    57  48  72 E10       30.52S
KREMMLING      CLOUDY    70  41  35 SW9G18    30.43S
LEADVILLE      CLOUDY    52  45  77 S14       30.59S
MONARCH PASS   FOG       41  39  93 W15       30.84S VSB<1/4
SALIDA         CLOUDY    58  54  85 NE3       30.57F
SUNLIGHT       RAIN      46  45  93 CALM      30.68S
WILKERSON PASS NOT AVBL
$$

COZ069>075-211900-
...SAN LUIS VALLEY/SANGRE DE CRISTO MOUNTAINS...

CITY           SKY/WX    TMP DP  RH WIND       PRES   REMARKS
ALAMOSA        MOSUNNY   73  44  35 SW9       30.43F
LA VETA PASS   FOG       48  46  93 NE12      30.63S VSB<1/4
SAGUACHE       NOT AVBL
$$

COZ035-036-038>040-211900-
...NORTHERN COLORADO FRONT RANGE...

CITY           SKY/WX    TMP DP  RH WIND       PRES   REMARKS
DENVER INTL AP PTSUNNY   69  46  43 S5        30.36F
DMNS CITY PARK   N/A     67  46  47 W2        30.35F
AURORA         PTSUNNY   65  47  52 W2        30.38F
FRONT RANGE AP NOT AVBL
ERIE MUNI ARPT NOT AVBL
BOULDER MUN AP MOSUNNY   66  45  45 NE3       30.37F
CENTENNIAL     MOSUNNY   64  48  56 SE3       30.38F
BROOMFIELD     PTSUNNY   66  45  45 CALM      30.39
FORT COLLINS   MOSUNNY   66  45  45 E9        30.37F
LONGMONT       MOSUNNY   72  46  38 NE3       30.37F
$$

COZ041-046-047-076>085-087-088-211900-
...PIKES PEAK/PALMER DIVIDE AND SOUTHERN FOOTHILLS...

CITY           SKY/WX    TMP DP  RH WIND       PRES   REMARKS
COLO. SPRINGS  PTSUNNY   65  49  56 SE17G23   30.45F
A. F. ACADEMY  PTSUNNY   64  50  59 S14       30.45S
ELLICOTT       NOT AVBL
FALCON         PTSUNNY   62  48  58 S14G20    30.49F
FORT CARSON    PTSUNNY   69  51  52 S10       30.43F
LIMON          PTSUNNY   67  40  37 S17G24    30.42F
MONUMENT HILL  PTSUNNY   61  48  63 S17       30.45F
TRINIDAD       CLOUDY    68  54  60 E10       30.41S
$$

COZ042>045-048>051-090-091-211900-
...NORTHEAST COLORADO...

CITY           SKY/WX    TMP DP  RH WIND       PRES   REMARKS
GREELEY ARPT   MOSUNNY   72  46  40 SE8G16    30.35F
AKRON          MOSUNNY   70  39  32 S18       30.39S
BURLINGTON     PTSUNNY   70  36  28 VRB5G21   30.40S
WRAY           PTSUNNY   74  36  24 SE9       30.38S
STERLING       CLOUDY    75  41  29 SE10G17   30.36S
HOLYOKE        SUNNY     73  37  27 E7        30.37F
FORT MORGAN    MOSUNNY   69  38  31 SE15G21   30.38F
$$

COZ086-089-092>099-211900-
...SOUTHEAST COLORADO...

CITY           SKY/WX    TMP DP  RH WIND       PRES   REMARKS
PUEBLO         PTSUNNY   66  52  60 E12       30.39F
LA JUNTA       PTSUNNY   70  40  33 E13G21    30.38F
LAMAR          MOSUNNY   73  41  31 VRB7      30.35F
SPRINGFIELD      N/A     73  46  38 E12       30.36F
$$


USA.gov is the U.S. government's official web portal to all federal, state and local government web resources and services.